This demonstration page uses our WeatherBlox Daily Observations layout. Learn more.

Left ArrowRight Arrow

Hourly Observations for April 16, 2021

Temp ( °F °C ) Dew Point ( °F °C ) Humidity (%) Winds ( mph kmh ) Pressure ( in mb ) Visibility ( mi km ) Precip ( " mm )
12:15 am 00:15 Clear 36 2 36 2 100 100 Calm 30.06 1018 10 16.0934 N/A
12:35 am 00:35 Clear 34 1 34 1 100 100 Calm 30.06 1018 10 16.0934 N/A
12:55 am 00:55 Clear 36 2 36 2 100 100 Calm 30.06 1018 10 16.0934 N/A
1:15 am 01:15 Clear 34 1 34 1 100 100 Calm 30.05 1018 10 16.0934 N/A
1:35 am 01:35 Clear 34 1 34 1 100 100 Calm 30.06 1018 10 16.0934 N/A
1:55 am 01:55 Partly Cloudy 36 2 36 2 100 100 Calm 30.05 1018 10 16.0934 N/A
2:15 am 02:15 Partly Cloudy 34 1 34 1 100 100 Calm 30.06 1018 10 16.0934 N/A
2:35 am 02:35 Partly Cloudy 37 3 37 3 100 100 Calm 30.04 1017 10 16.0934 N/A
2:55 am 02:55 Clear 36 2 36 2 100 100 Calm 30.05 1018 10 16.0934 N/A
3:15 am 03:15 Clear 34 1 34 1 100 100 Calm 30.04 1017 10 16.0934 N/A
3:35 am 03:35 Clear 32 0 32 0 100 100 Calm 30.05 1017 10 16.0934 N/A
3:55 am 03:55 Clear 32 0 32 0 100 100 Calm 30.05 1017 10 16.0934 N/A
4:15 am 04:15 Clear 32 0 32 0 100 100 Calm 30.04 1017 10 16.0934 N/A
4:35 am 04:35 Clear 32 0 32 0 100 100 Calm 30.04 1017 10 16.0934 N/A
4:55 am 04:55 Clear 34 1 34 1 100 100 Calm 30.03 1017 10 16.0934 N/A
5:15 am 05:15 Clear 32 0 32 0 100 100 Calm 30.04 1017 10 16.0934 N/A
5:35 am 05:35 Clear 30 -1 30 -1 100 100 Calm 30.04 1017 10 16.0934 N/A
5:55 am 05:55 Clear 34 1 34 1 100 100 Calm 30.03 1017 10 16.0934 N/A
6:15 am 06:15 Clear 32 0 32 0 100 100 Calm 30.04 1017 10 16.0934 N/A
6:35 am 06:35 Clear 30 -1 30 -1 100 100 Calm 30.04 1017 10 16.0934 N/A
6:55 am 06:55 Clear 30 -1 30 -1 100 100 Calm 30.04 1017 10 16.0934 N/A
7:15 am 07:15 Sunny 32 0 32 0 100 100 Calm 30.03 1017 10 16.0934 N/A
7:35 am 07:35 Sunny 34 1 34 1 100 100 Calm 30.03 1017 10 16.0934 N/A
7:55 am 07:55 Sunny 36 2 36 2 100 100 Calm 30.03 1017 10 16.0934 N/A
8:15 am 08:15 Sunny 37 3 37 3 100 100 Calm 30.02 1017 10 16.0934 N/A
8:35 am 08:35 Sunny 41 5 39 4 93 93 Calm 30.02 1017 10 16.0934 N/A
8:55 am 08:55 Sunny 43 6 39 4 87 87 Calm 30.01 1016 10 16.0934 N/A
9:15 am 09:15 Sunny 45 7 39 4 81 81 Calm 30.01 1016 10 16.0934 N/A
9:35 am 09:35 Sunny 46 8 41 5 82 82 WNW 7 11 30.02 1016 10 16.0934 N/A
9:55 am 09:55 Sunny 46 8 39 4 76 76 Calm 30.01 1016 10 16.0934 N/A
10:15 am 10:15 Sunny 48 9 39 4 71 71 Calm 30.01 1016 10 16.0934 N/A
10:35 am 10:35 Sunny 50 10 39 4 67 67 NW 8 13 30 1016 10 16.0934 N/A
10:55 am 10:55 Sunny 50 10 39 4 67 67 Calm 30 1016 10 16.0934 N/A
11:15 am 11:15 Sunny 52 11 41 5 67 67 WNW 10 17 30 1016 10 16.0934 N/A
11:35 am 11:35 Partly Cloudy 52 11 41 5 67 67 NW 12 19 30 1016 10 16.0934 N/A
11:55 am 11:55 Partly Cloudy 54 12 41 5 63 63 NNW 10 17 29.99 1016 10 16.0934 N/A
12:15 pm 12:15 Mostly Cloudy 54 12 41 5 63 63 NW 6 9 29.98 1015 10 16.0934 N/A
12:35 pm 12:35 Partly Cloudy 54 12 41 5 63 63 NW 7 11 29.98 1015 10 16.0934 N/A
12:55 pm 12:55 Partly Cloudy 55 13 41 5 59 59 Calm 29.97 1015 10 16.0934 N/A
1:15 pm 13:15 Partly Cloudy 55 13 41 5 59 59 NW 6 9 29.96 1015 10 16.0934 N/A
1:35 pm 13:35 Partly Cloudy 55 13 41 5 59 59 Calm 29.95 1014 10 16.0934 N/A
1:55 pm 13:55 Partly Cloudy 55 13 41 5 59 59 Calm 29.94 1014 10 16.0934 N/A
2:15 pm 14:15 Partly Cloudy 55 13 41 5 59 59 SW 5 7 29.93 1014 10 16.0934 N/A
2:35 pm 14:35 Partly Cloudy 57 14 43 6 59 59 Calm 29.93 1013 10 16.0934 N/A
2:55 pm 14:55 Partly Cloudy 57 14 43 6 59 59 W 7 11 29.93 1013 10 16.0934 N/A
3:15 pm 15:15 Partly Cloudy 57 14 43 6 59 59 WNW 6 9 29.93 1013 10 16.0934 N/A
3:35 pm 15:35 Sunny 55 13 41 5 59 59 Calm 29.92 1013 10 16.0934 N/A
3:55 pm 15:55 Sunny 57 14 41 5 55 55 Calm 29.91 1013 10 16.0934 N/A
4:15 pm 16:15 Partly Cloudy 59 15 43 6 55 55 W 5 7 29.9 1013 10 16.0934 N/A
4:35 pm 16:35 Partly Cloudy 59 15 43 6 55 55 W 6 9 29.9 1013 10 16.0934 N/A
4:55 pm 16:55 Partly Cloudy 61 16 45 7 55 55 Calm 29.89 1012 10 16.0934 N/A
5:15 pm 17:15 Partly Cloudy 59 15 43 6 55 55 Calm 29.89 1012 10 16.0934 N/A
5:35 pm 17:35 Sunny 59 15 43 6 55 55 Calm 29.89 1012 10 16.0934 N/A
5:55 pm 17:55 Sunny 59 15 43 6 55 55 Calm 29.89 1012 10 16.0934 N/A
6:15 pm 18:15 Sunny 61 16 43 6 52 52 Calm 29.89 1012 10 16.0934 N/A
6:35 pm 18:35 Sunny 59 15 43 6 55 55 Calm 29.89 1012 10 16.0934 N/A
6:55 pm 18:55 Partly Cloudy 59 15 43 6 55 55 Calm 29.89 1012 10 16.0934 N/A
7:15 pm 19:15 Mostly Cloudy 59 15 41 5 51 51 Calm 29.89 1012 10 16.0934 N/A
7:35 pm 19:35 Partly Cloudy 57 14 41 5 55 55 Calm 29.9 1012 10 16.0934 N/A
7:55 pm 19:55 Partly Cloudy 55 13 41 5 59 59 Calm 29.9 1013 10 16.0934 N/A
8:15 pm 20:15 Partly Cloudy 54 12 41 5 63 63 Calm 29.91 1013 10 16.0934 N/A
8:35 pm 20:35 Partly Cloudy 54 12 41 5 63 63 Calm 29.91 1013 10 16.0934 N/A
8:55 pm 20:55 Partly Cloudy 50 10 41 5 71 71 Calm 29.92 1013 10 16.0934 N/A
9:15 pm 21:15 Clear 48 9 41 5 76 76 Calm 29.93 1014 10 16.0934 N/A
9:35 pm 21:35 Partly Cloudy 45 7 43 6 93 93 Calm 29.94 1014 10 16.0934 N/A
9:55 pm 21:55 Partly Cloudy 48 9 41 5 76 76 Calm 29.93 1014 10 16.0934 N/A
10:15 pm 22:15 Clear 46 8 41 5 82 82 Calm 29.94 1014 10 16.0934 N/A
10:35 pm 22:35 Clear 48 9 43 6 82 82 N 10 17 29.94 1014 10 16.0934 N/A
10:55 pm 22:55 Clear 46 8 43 6 87 87 Calm 29.95 1014 10 16.0934 N/A
11:15 pm 23:15 Clear 46 8 43 6 87 87 Calm 29.95 1014 10 16.0934 N/A
11:35 pm 23:35 Clear 45 7 41 5 87 87 Calm 29.94 1014 10 16.0934 N/A
11:55 pm 23:55 Clear 45 7 41 5 87 87 Calm 29.95 1014 10 16.0934 N/A

Powered by AerisWeather